Location: Praha
(50.0830°N, 14.4670°E)
Time: 05:28:16
(UTC+02:00)

ISS - Pass Details

Date: 09 July 2024
Orbit: 409 x 423 km, 51.6° (Epoch: 24 July)

Event Time Altitude Azimuth Distance (km) Brightness Sun altitude
Rises 22:12:19 0° 213° (SSW) 2,325 -0.2 -8.0°
Reaches altitude 10° 22:14:39 10° 198° (SSW) 1,468 -1.3 -8.2°
Maximum altitude 22:17:20 23° 144° (SE) 919 -2.6 -8.5°
Drops below altitude 10° 22:20:01 10° 89° (E) 1,477 -1.3 -8.8°
Sets 22:22:22 0° 75° (ENE) 2,344 -0.2 -9.0°
